5YNEZ HKBU-HKNW

Flight info

Callsign 5YNEZ
Flight time N/A
Altitude 11000
Route 0016S03458E DCT 0024S03504E 0047S03521E 0056S03525E 0105S03552E
Aircraft C208/L-SDFGR/C

Departure

Time N/A
Airport Bungoma Airport (HKBU)

Arrival

Time 2026-05-08 14:21
Airport Nairobi Wilson Airport (HKNW)
Time Latitude Longitude Altitude Speed Heading
2026-05-08 14:10 -0.96638 36.48367 11129 ft 192 kts 129°
2026-05-08 14:10 -0.97452 36.49412 11131 ft 192 kts 129°
2026-05-08 14:11 -0.98223 36.50396 11133 ft 192 kts 129°
2026-05-08 14:11 -0.99043 36.51444 11133 ft 191 kts 129°
2026-05-08 14:11 -0.99866 36.52494 11130 ft 191 kts 129°
2026-05-08 14:11 -1.00684 36.53533 11123 ft 189 kts 129°
2026-05-08 14:12 -1.01500 36.54560 11121 ft 188 kts 129°
2026-05-08 14:12 -1.02307 36.55569 11121 ft 188 kts 129°
2026-05-08 14:12 -1.03136 36.56603 11120 ft 188 kts 129°
2026-05-08 14:12 -1.03944 36.57607 11121 ft 188 kts 130°
2026-05-08 14:13 -1.04763 36.58624 11120 ft 188 kts 129°
2026-05-08 14:13 -1.05586 36.59639 11123 ft 188 kts 130°
2026-05-08 14:13 -1.06419 36.60667 11123 ft 188 kts 129°
2026-05-08 14:13 -1.06964 36.61342 11126 ft 188 kts 129°
2026-05-08 14:14 -1.07991 36.62613 11130 ft 189 kts 130°
2026-05-08 14:14 -1.08829 36.63656 11133 ft 189 kts 130°
2026-05-08 14:14 -1.09663 36.64695 11134 ft 190 kts 129°
2026-05-08 14:14 -1.10481 36.65713 11135 ft 190 kts 130°
2026-05-08 14:15 -1.11309 36.66744 11139 ft 191 kts 129°
2026-05-08 14:15 -1.12130 36.67767 11142 ft 191 kts 129°
2026-05-08 14:15 -1.12970 36.68815 11140 ft 191 kts 129°
2026-05-08 14:15 -1.13776 36.69817 11134 ft 183 kts 130°
2026-05-08 14:16 -1.14578 36.70791 11045 ft 182 kts 130°
2026-05-08 14:16 -1.15393 36.71776 10854 ft 184 kts 130°
2026-05-08 14:16 -1.16207 36.72762 10672 ft 184 kts 130°
2026-05-08 14:17 -1.17836 36.74735 10310 ft 184 kts 130°
2026-05-08 14:17 -1.18747 36.75615 10118 ft 183 kts 153°
2026-05-08 14:17 -1.19966 36.75961 9930 ft 182 kts 168°
2026-05-08 14:17 -1.21205 36.76243 9735 ft 183 kts 166°
2026-05-08 14:18 -1.22419 36.76554 9534 ft 183 kts 165°
2026-05-08 14:18 -1.23663 36.76889 9346 ft 183 kts 165°
2026-05-08 14:18 -1.24867 36.77212 9105 ft 176 kts 164°
2026-05-08 14:18 -1.25975 36.77524 8838 ft 157 kts 163°
2026-05-08 14:19 -1.26995 36.77792 8455 ft 151 kts 167°
2026-05-08 14:19 -1.28006 36.78051 7929 ft 149 kts 161°
2026-05-08 14:19 -1.28910 36.78436 7353 ft 143 kts 151°
2026-05-08 14:19 -1.29738 36.79022 6956 ft 143 kts 138°
2026-05-08 14:20 -1.30448 36.79673 6627 ft 123 kts 136°
2026-05-08 14:20 -1.31020 36.80240 6160 ft 112 kts 131°
2026-05-08 14:20 -1.31498 36.80741 5845 ft 86 kts 128°
2026-05-08 14:20 -1.31859 36.81134 5612 ft 72 kts 132°
2026-05-08 14:21 -1.32090 36.81371 5534 ft 69 kts 135°
2026-05-08 14:21 -1.32381 36.81667 5503 ft 44 kts 134°
2026-05-08 14:21 -1.32462 36.81747 5500 ft 7 kts 150°
2026-05-08 14:21 -1.32508 36.81717 5498 ft 10 kts 236°
2026-05-08 14:22 -1.32542 36.81658 5498 ft 9 kts 240°
2026-05-08 14:22 -1.32565 36.81607 5500 ft 7 kts 248°
2026-05-08 14:22 -1.32576 36.81572 5501 ft 5 kts 254°
2026-05-08 14:22 -1.32586 36.81517 5504 ft 12 kts 262°
2026-05-08 14:23 -1.32576 36.81407 5510 ft 20 kts 282°
2026-05-08 14:23 -1.32523 36.81278 5518 ft 21 kts 303°
2026-05-08 14:23 -1.32450 36.81195 5524 ft 12 kts 318°
2026-05-08 14:23 -1.32367 36.81118 5525 ft 18 kts 326°
2026-05-08 14:24 -1.32256 36.81072 5527 ft 17 kts 355°
2026-05-08 14:24 -1.32167 36.81072 5525 ft 8 kts
2026-05-08 14:24 -1.32075 36.81106 5523 ft 19 kts 28°
2026-05-08 14:24 -1.32009 36.81139 5523 ft 6 kts 28°
2026-05-08 14:25 -1.31991 36.81159 5523 ft 4 kts 72°
2026-05-08 14:25 -1.31974 36.81175 5523 ft 0 kts 289°
2026-05-08 14:25 -1.31975 36.81165 5524 ft 4 kts 260°
2026-05-08 14:25 -1.31989 36.81151 5524 ft 2 kts 214°
2026-05-08 14:26 -1.31996 36.81147 5523 ft 0 kts 195°
2026-05-08 14:31 -1.32014 36.81159 5523 ft 10 kts 125°
2026-05-08 14:31 -1.32008 36.81205 5521 ft 1 kts 51°
2026-05-08 14:31 -1.31992 36.81229 5521 ft 11 kts 57°
2026-05-08 14:32 -1.32667 36.81944 5813 ft 106 kts 145°
2026-05-08 14:32 -1.33628 36.81961 6531 ft 123 kts 218°
2026-05-08 14:32 -1.33653 36.81165 7106 ft 127 kts 297°
2026-05-08 14:32 -1.33103 36.80492 7611 ft 132 kts 315°
2026-05-08 14:33 -1.32505 36.79916 8322 ft 104 kts 314°
2026-05-08 14:33 -1.31755 36.79701 8433 ft 141 kts 18°
2026-05-08 14:33 -1.31057 36.80380 8621 ft 152 kts 63°
2026-05-08 14:33 -1.30521 36.81407 8564 ft 175 kts 67°
2026-05-08 14:34 -1.29989 36.82518 8760 ft 174 kts 65°
2026-05-08 14:34 -1.29410 36.83534 9188 ft 164 kts 63°
2026-05-08 14:34 -1.28873 36.84513 9609 ft 158 kts 64°
2026-05-08 14:34 -1.28242 36.85490 9651 ft 175 kts 52°
2026-05-08 14:35 -1.27326 36.86166 10080 ft 164 kts 29°
2026-05-08 14:35 -1.26259 36.86740 10051 ft 182 kts 39°
2026-05-08 14:35 -1.25447 36.87769 9762 ft 200 kts 62°
2026-05-08 14:35 -1.24833 36.89002 9900 ft 191 kts 66°
2026-05-08 14:36 -1.24295 36.90174 10188 ft 180 kts 65°
2026-05-08 14:36 -1.23558 36.91159 10471 ft 176 kts 47°
2026-05-08 14:36 -1.22752 36.92125 10422 ft 191 kts 56°
2026-05-08 14:36 -1.22002 36.93289 10208 ft 205 kts 59°
2026-05-08 14:37 -1.21233 36.94496 9988 ft 212 kts 56°
2026-05-08 14:37 -1.20373 36.95681 9735 ft 210 kts 54°
2026-05-08 14:37 -1.19497 36.96840 9483 ft 208 kts 53°
2026-05-08 14:37 -1.18620 36.97987 9231 ft 206 kts 54°
2026-05-08 14:38 -1.17718 36.99092 8983 ft 204 kts 46°
2026-05-08 14:38 -1.16492 36.99714 8719 ft 201 kts
2026-05-08 14:38 -1.15152 36.99421 8464 ft 199 kts 333°
2026-05-08 14:38 -1.14199 36.98452 8219 ft 197 kts 295°
2026-05-08 14:39 -1.14038 36.97123 7971 ft 195 kts 257°
2026-05-08 14:39 -1.14566 36.95889 7738 ft 193 kts 239°
2026-05-08 14:39 -1.15217 36.94713 7502 ft 193 kts 238°
2026-05-08 14:39 -1.16087 36.93822 7206 ft 176 kts 192°
2026-05-08 14:40 -1.17191 36.94154 6584 ft 174 kts 134°
2026-05-08 14:40 -1.17675 36.94749 6233 ft 160 kts 123°
2026-05-08 14:41 -1.19138 36.97696 4978 ft 0 kts 315°
2026-05-08 14:42 -1.19128 36.97688 4718 ft 16 kts 285°
2026-05-08 14:42 -1.19002 36.97535 4027 ft 159 kts 308°
2026-05-08 14:43 -1.18194 36.97376 4970 ft 0 kts 24°